When you browse on this site, cookies collect data to enhance your experience and personalize the content and advertising you see.
Visit our Privacy Policy to learn more. By continuing to use the site, you agree to this use of cookies and data.
  • In Czech Republic
  • List of Countries
  • For 7 days
  • Water Temperature
  • Satellite Maps
  • Weather Map
  • Weather Widgets
  • user-avatar
    Login

    Hourly Weather Mercer Island

    Today, 17 July, Wednesday

    Time Temperature Precipitation Wind Pressure Humidity
    00:00 +16°C° 0 mm 2 mps 758 mmHg 87%
    01:00 +16°C° 0 mm 2 mps 757 mmHg 88%
    02:00 +16°C° 0 mm 2 mps 757 mmHg 88%
    03:00 +16°C° 0 mm 2 mps 757 mmHg 88%
    04:00 +16°C° 0 mm 2 mps 757 mmHg 88%
    05:00 +16°C° 0 mm 3 mps 757 mmHg 87%
    06:00 +16°C° 0 mm 3 mps 757 mmHg 86%
    07:00 +17°C° 0 mm 3 mps 757 mmHg 85%
    08:00 +17°C° 0 mm 3 mps 757 mmHg 83%
    09:00 +17°C° 0 mm 3 mps 756 mmHg 81%
    10:00 +18°C° 0 mm 4 mps 756 mmHg 79%
    11:00 +18°C° 0.1 mm 4 mps 756 mmHg 81%
    12:00 +18°C° 0.1 mm 4 mps 756 mmHg 83%
    13:00 +17°C° 0.1 mm 4 mps 756 mmHg 85%
    14:00 +17°C° 0.2 mm 4 mps 756 mmHg 86%
    15:00 +17°C° 0.2 mm 4 mps 756 mmHg 87%
    16:00 +18°C° 0.2 mm 4 mps 756 mmHg 89%
    17:00 +18°C° 0.2 mm 4 mps 756 mmHg 90%
    18:00 +18°C° 0.2 mm 4 mps 756 mmHg 90%
    19:00 +18°C° 0.2 mm 4 mps 756 mmHg 91%
    20:00 +17°C° 0.3 mm 3 mps 756 mmHg 92%
    21:00 +17°C° 0.3 mm 3 mps 756 mmHg 93%
    22:00 +17°C° 0.3 mm 2 mps 756 mmHg 94%
    23:00 +16°C° 0.2 mm 2 mps 757 mmHg 93%

    Tomorrow, 18 July, Thursday

    Time Temperature Precipitation Wind Pressure Humidity
    00:00 +15°C° 0.2 mm 2 mps 757 mmHg 92%
    01:00 +15°C° 0.2 mm 2 mps 758 mmHg 91%
    02:00 +15°C° 0.2 mm 2 mps 758 mmHg 91%
    03:00 +14°C° 0.2 mm 2 mps 758 mmHg 91%
    04:00 +14°C° 0.2 mm 2 mps 759 mmHg 91%
    05:00 +14°C° 0 mm 2 mps 759 mmHg 89%
    06:00 +14°C° 0 mm 2 mps 759 mmHg 88%
    07:00 +15°C° 0 mm 2 mps 759 mmHg 87%
    08:00 +16°C° 0 mm 2 mps 759 mmHg 79%
    09:00 +17°C° 0 mm 2 mps 759 mmHg 71%
    10:00 +19°C° 0 mm 2 mps 759 mmHg 63%
    11:00 +20°C° 0.1 mm 2 mps 759 mmHg 56%
    12:00 +23°C° 0.1 mm 2 mps 759 mmHg 50%
    13:00 +24°C° 0.1 mm 3 mps 759 mmHg 43%
    14:00 +22°C° 0.2 mm 3 mps 759 mmHg 49%
    15:00 +21°C° 0.2 mm 3 mps 758 mmHg 56%
    16:00 +20°C° 0.2 mm 3 mps 758 mmHg 62%
    17:00 +19°C° 0.1 mm 3 mps 758 mmHg 64%
    18:00 +19°C° 0.1 mm 2 mps 758 mmHg 65%
    19:00 +18°C° 0.1 mm 2 mps 759 mmHg 67%
    20:00 +17°C° 0 mm 2 mps 759 mmHg 70%
    21:00 +16°C° 0 mm 2 mps 759 mmHg 74%
    22:00 +15°C° 0 mm 2 mps 760 mmHg 77%
    23:00 +15°C° 0.1 mm 1 mps 760 mmHg 78%

    Day after tomorrow, 19 July, Friday

    Time Temperature Precipitation Wind Pressure Humidity
    00:00 +15°C° 0.1 mm 1 mps 760 mmHg 80%
    01:00 +14°C° 0.1 mm 1 mps 760 mmHg 81%
    02:00 +14°C° 0 mm 1 mps 760 mmHg 82%
    03:00 +13°C° 0 mm 0 mps 760 mmHg 82%
    04:00 +13°C° 0 mm 0 mps 760 mmHg 82%
    05:00 +13°C° 0.1 mm 0 mps 761 mmHg 83%
    06:00 +13°C° 0.1 mm 0 mps 761 mmHg 84%
    07:00 +13°C° 0.1 mm 0 mps 761 mmHg 85%
    08:00 +15°C° 0.1 mm 0 mps 761 mmHg 76%
    09:00 +18°C° 0.1 mm 0 mps 761 mmHg 67%
    10:00 +20°C° 0.1 mm 0 mps 761 mmHg 58%
    11:00 +22°C° 0.1 mm 1 mps 761 mmHg 53%
    12:00 +23°C° 0.1 mm 2 mps 761 mmHg 48%
    13:00 +24°C° 0.1 mm 2 mps 760 mmHg 42%
    14:00 +24°C° 0 mm 2 mps 760 mmHg 41%
    15:00 +24°C° 0 mm 3 mps 760 mmHg 40%
    16:00 +24°C° 0 mm 3 mps 760 mmHg 38%
    17:00 +23°C° 0 mm 2 mps 760 mmHg 42%
    18:00 +21°C° 0 mm 2 mps 761 mmHg 47%
    19:00 +20°C° 0 mm 2 mps 761 mmHg 51%
    20:00 +18°C° 0 mm 2 mps 761 mmHg 59%
    21:00 +16°C° 0 mm 1 mps 762 mmHg 68%
    22:00 +14°C° 0 mm 1 mps 762 mmHg 77%
    23:00 +13°C° 0 mm 1 mps 762 mmHg 80%

    20 July, Saturday

    Time Temperature Precipitation Wind Pressure Humidity
    00:00 +13°C° 0 mm 1 mps 762 mmHg 83%
    01:00 +12°C° 0 mm 1 mps 762 mmHg 86%
    02:00 +12°C° 0 mm 1 mps 762 mmHg 86%
    03:00 +12°C° 0 mm 1 mps 762 mmHg 87%
    04:00 +12°C° 0 mm 1 mps 762 mmHg 87%
    05:00 +14°C° 0 mm 1 mps 762 mmHg 80%
    06:00 +15°C° 0 mm 1 mps 762 mmHg 73%
    07:00 +18°C° 0 mm 1 mps 762 mmHg 66%
    08:00 +20°C° 0 mm 1 mps 762 mmHg 59%
    09:00 +22°C° 0 mm 1 mps 762 mmHg 52%
    10:00 +24°C° 0 mm 2 mps 762 mmHg 45%
    11:00 +25°C° 0 mm 2 mps 762 mmHg 41%
    12:00 +27°C° 0 mm 2 mps 761 mmHg 38%
    13:00 +28°C° 0 mm 3 mps 761 mmHg 34%
    14:00 +28°C° 0 mm 3 mps 760 mmHg 34%
    15:00 +28°C° 0 mm 3 mps 760 mmHg 34%
    16:00 +28°C° 0 mm 3 mps 759 mmHg 33%
    17:00 +26°C° 0 mm 3 mps 759 mmHg 39%
    18:00 +25°C° 0 mm 2 mps 759 mmHg 45%
    19:00 +23°C° 0 mm 2 mps 759 mmHg 51%
    20:00 +20°C° 0 mm 2 mps 759 mmHg 59%
    21:00 +18°C° 0 mm 2 mps 759 mmHg 66%
    22:00 +16°C° 0 mm 1 mps 760 mmHg 73%
    23:00 +15°C° 0 mm 1 mps 760 mmHg 76%

    21 July, Sunday

    Time Temperature Precipitation Wind Pressure Humidity
    00:00 +15°C° 0 mm 1 mps 759 mmHg 79%
    01:00 +14°C° 0 mm 1 mps 759 mmHg 82%
    02:00 +14°C° 0 mm 1 mps 759 mmHg 83%
    03:00 +14°C° 0 mm 1 mps 759 mmHg 83%
    04:00 +13°C° 0 mm 1 mps 759 mmHg 84%
    05:00 +15°C° 0 mm 1 mps 759 mmHg 77%
    06:00 +18°C° 0 mm 1 mps 759 mmHg 70%
    07:00 +20°C° 0 mm 1 mps 759 mmHg 63%
    08:00 +22°C° 0 mm 1 mps 759 mmHg 56%
    09:00 +24°C° 0 mm 1 mps 759 mmHg 48%
    10:00 +26°C° 0 mm 2 mps 759 mmHg 40%
    11:00 +27°C° 0 mm 2 mps 759 mmHg 37%
    12:00 +29°C° 0 mm 2 mps 758 mmHg 34%
    13:00 +30°C° 0 mm 2 mps 758 mmHg 31%
    14:00 +30°C° 0 mm 3 mps 758 mmHg 31%
    15:00 +29°C° 0 mm 3 mps 758 mmHg 31%
    16:00 +29°C° 0 mm 3 mps 757 mmHg 31%
    17:00 +27°C° 0 mm 3 mps 758 mmHg 37%
    18:00 +25°C° 0 mm 2 mps 758 mmHg 43%
    19:00 +23°C° 0 mm 2 mps 758 mmHg 49%
    20:00 +20°C° 0 mm 2 mps 758 mmHg 56%
    21:00 +19°C° 0 mm 1 mps 759 mmHg 63%
    22:00 +16°C° 0 mm 1 mps 759 mmHg 70%
    23:00 +16°C° 0 mm 1 mps 759 mmHg 73%

    22 July, Monday

    Time Temperature Precipitation Wind Pressure Humidity
    00:00 +15°C° 0 mm 1 mps 759 mmHg 76%
    01:00 +14°C° 0 mm 0 mps 759 mmHg 78%
    02:00 +14°C° 0 mm 0 mps 759 mmHg 80%
    03:00 +13°C° 0 mm 0 mps 759 mmHg 82%
    04:00 +13°C° 0 mm 0 mps 759 mmHg 84%
    05:00 +15°C° 0 mm 0 mps 759 mmHg 77%
    06:00 +16°C° 0 mm 0 mps 759 mmHg 70%
    07:00 +18°C° 0 mm 0 mps 759 mmHg 63%
    08:00 +20°C° 0 mm 0 mps 759 mmHg 56%
    09:00 +25°C° 0 mm 1 mps 759 mmHg 49%
    10:00 +27°C° 0 mm 1 mps 759 mmHg 42%
    11:00 +28°C° 0 mm 1 mps 759 mmHg 39%
    12:00 +29°C° 0 mm 2 mps 759 mmHg 36%
    13:00 +30°C° 0 mm 2 mps 758 mmHg 33%
    14:00 +30°C° 0 mm 2 mps 758 mmHg 34%
    15:00 +29°C° 0 mm 3 mps 758 mmHg 35%
    16:00 +29°C° 0 mm 3 mps 758 mmHg 36%
    17:00 +27°C° 0 mm 3 mps 758 mmHg 43%
    18:00 +25°C° 0 mm 2 mps 758 mmHg 49%
    19:00 +23°C° 0 mm 2 mps 758 mmHg 55%
    20:00 +20°C° 0 mm 2 mps 759 mmHg 61%
    21:00 +19°C° 0 mm 1 mps 759 mmHg 68%
    22:00 +16°C° 0 mm 1 mps 759 mmHg 75%
    23:00 +16°C° 0 mm 1 mps 760 mmHg 77%
    Show more